TimeCDT,TemperatureF,Dew PointF,Humidity,Sea Level PressureIn,VisibilityMPH,Wind Direction,Wind SpeedMPH,Gust SpeedMPH,PrecipitationIn,Events,Conditions,WindDirDegrees,DateUTC
12:15 AM,53.4,47.3,80,29.98,10.0,SE,3.5,-,N/A,,Clear,130,2013-09-24 05:15:00
12:35 AM,53.2,47.3,80,29.98,10.0,SE,4.6,-,N/A,,Clear,130,2013-09-24 05:35:00
12:55 AM,52.7,47.3,82,29.99,10.0,Calm,Calm,-,N/A,,Clear,0,2013-09-24 05:55:00
1:15 AM,52.2,47.3,83,29.99,10.0,Calm,Calm,-,N/A,,Clear,0,2013-09-24 06:15:00
1:35 AM,51.8,46.9,83,29.99,10.0,Calm,Calm,-,N/A,,Clear,0,2013-09-24 06:35:00
1:55 AM,50.9,46.6,85,29.99,10.0,Calm,Calm,-,N/A,,Clear,0,2013-09-24 06:55:00
2:35 AM,49.5,46.8,90,29.99,10.0,Calm,Calm,-,N/A,,Clear,0,2013-09-24 07:35:00
2:55 AM,48.6,45.9,90,29.99,10.0,Calm,Calm,-,N/A,,Clear,0,2013-09-24 07:55:00
3:15 AM,48.7,46.6,92,29.98,10.0,Calm,Calm,-,N/A,,Clear,0,2013-09-24 08:15:00
3:35 AM,48.7,46.4,92,29.98,10.0,Calm,Calm,-,N/A,,Clear,0,2013-09-24 08:35:00
3:55 AM,47.5,45.5,93,29.99,10.0,Calm,Calm,-,N/A,,Clear,0,2013-09-24 08:55:00
4:15 AM,50.5,48.0,91,29.99,10.0,East,4.6,-,N/A,,Clear,90,2013-09-24 09:15:00
4:35 AM,50.4,46.9,88,29.99,10.0,East,3.5,-,N/A,,Clear,90,2013-09-24 09:35:00
4:55 AM,50.4,47.1,89,29.99,10.0,East,3.5,-,N/A,,Clear,100,2013-09-24 09:55:00
5:15 AM,49.5,46.6,90,29.98,10.0,East,3.5,-,N/A,,Clear,100,2013-09-24 10:15:00
5:35 AM,49.5,46.8,90,29.98,10.0,Calm,Calm,-,N/A,,Clear,0,2013-09-24 10:35:00
5:55 AM,50.2,47.3,90,29.98,10.0,Calm,Calm,-,N/A,,Clear,0,2013-09-24 10:55:00
6:15 AM,50.4,47.3,89,29.98,10.0,East,3.5,-,N/A,,Clear,100,2013-09-24 11:15:00
6:35 AM,50.4,47.3,89,29.98,10.0,Calm,Calm,-,N/A,,Clear,0,2013-09-24 11:35:00
6:55 AM,50.2,47.1,89,29.99,10.0,ESE,3.5,-,N/A,,Clear,110,2013-09-24 11:55:00
7:15 AM,50.0,47.3,90,29.98,10.0,East,3.5,-,N/A,,Clear,100,2013-09-24 12:15:00
7:35 AM,52.0,48.6,88,29.98,10.0,East,3.5,-,N/A,,Clear,100,2013-09-24 12:35:00
7:55 AM,53.8,49.6,86,29.98,10.0,East,4.6,-,N/A,,Clear,100,2013-09-24 12:55:00
8:15 AM,55.8,50.0,81,29.98,10.0,East,6.9,-,N/A,,Clear,100,2013-09-24 13:15:00
8:35 AM,57.4,50.2,77,29.97,10.0,ESE,4.6,-,N/A,,Clear,110,2013-09-24 13:35:00
8:55 AM,58.8,50.4,73,29.97,10.0,ESE,6.9,-,N/A,,Clear,120,2013-09-24 13:55:00
9:15 AM,60.8,51.1,70,29.97,10.0,ESE,5.8,-,N/A,,Clear,120,2013-09-24 14:15:00
9:35 AM,62.6,51.8,68,29.97,10.0,SE,8.1,-,N/A,,Clear,130,2013-09-24 14:35:00
9:55 AM,64.6,52.5,65,29.96,10.0,ESE,6.9,-,N/A,,Clear,110,2013-09-24 14:55:00
10:15 AM,66.7,53.4,62,29.95,10.0,ESE,4.6,-,N/A,,Clear,120,2013-09-24 15:15:00
10:35 AM,68.2,53.8,60,29.95,10.0,SE,5.8,-,N/A,,Clear,140,2013-09-24 15:35:00
10:55 AM,70.5,54.3,56,29.94,10.0,East,6.9,-,N/A,,Clear,90,2013-09-24 15:55:00
11:15 AM,72.0,55.0,55,29.93,10.0,East,6.9,-,N/A,,Clear,100,2013-09-24 16:15:00
11:35 AM,74.1,55.6,52,29.93,10.0,East,6.9,-,N/A,,Clear,90,2013-09-24 16:35:00
11:55 AM,75.6,54.0,47,29.92,10.0,ESE,6.9,-,N/A,,Clear,110,2013-09-24 16:55:00
12:15 PM,77.0,54.3,45,29.91,10.0,East,9.2,-,N/A,,Clear,100,2013-09-24 17:15:00
12:55 PM,78.1,53.6,43,29.89,10.0,ESE,4.6,-,N/A,,Clear,110,2013-09-24 17:55:00
1:15 PM,79.2,53.6,41,29.88,10.0,ESE,4.6,-,N/A,,Clear,110,2013-09-24 18:15:00
1:35 PM,79.3,53.2,40,29.88,10.0,Calm,Calm,-,N/A,,Clear,0,2013-09-24 18:35:00
1:55 PM,79.3,53.1,40,29.87,10.0,South,3.5,-,N/A,,Clear,180,2013-09-24 18:55:00
2:15 PM,79.2,53.2,41,29.86,10.0,SE,4.6,-,N/A,,Scattered Clouds,130,2013-09-24 19:15:00
2:35 PM,79.2,53.4,41,29.86,10.0,ESE,4.6,-,N/A,,Mostly Cloudy,120,2013-09-24 19:35:00
2:55 PM,78.8,53.2,41,29.86,10.0,East,4.6,-,N/A,,Mostly Cloudy,90,2013-09-24 19:55:00
3:15 PM,79.2,53.2,41,29.85,10.0,ESE,4.6,-,N/A,,Mostly Cloudy,120,2013-09-24 20:15:00
3:35 PM,79.5,53.4,40,29.85,10.0,ESE,4.6,-,N/A,,Mostly Cloudy,110,2013-09-24 20:35:00
3:55 PM,78.8,53.6,42,29.85,10.0,SE,6.9,-,N/A,,Mostly Cloudy,130,2013-09-24 20:55:00
4:15 PM,77.9,54.5,44,29.85,10.0,Calm,Calm,-,N/A,,Overcast,0,2013-09-24 21:15:00
4:35 PM,78.6,54.5,43,29.84,10.0,SSE,3.5,-,N/A,,Overcast,150,2013-09-24 21:35:00
4:55 PM,79.2,55.0,43,29.84,10.0,SE,5.8,-,N/A,,Mostly Cloudy,140,2013-09-24 21:55:00
5:15 PM,77.5,55.2,46,29.84,10.0,SE,4.6,-,N/A,,Clear,140,2013-09-24 22:15:00
5:35 PM,77.9,55.2,45,29.84,10.0,SE,3.5,-,N/A,,Clear,130,2013-09-24 22:35:00
5:55 PM,76.8,55.4,47,29.84,10.0,SSE,3.5,-,N/A,,Clear,150,2013-09-24 22:55:00
6:15 PM,74.3,56.3,53,29.84,10.0,Calm,Calm,-,N/A,,Scattered Clouds,0,2013-09-24 23:15:00
6:35 PM,70.9,57.2,62,29.84,10.0,Calm,Calm,-,N/A,,Scattered Clouds,0,2013-09-24 23:35:00
6:55 PM,69.3,57.2,65,29.85,10.0,Calm,Calm,-,N/A,,Clear,0,2013-09-24 23:55:00
7:15 PM,67.1,57.2,70,29.84,10.0,ENE,3.5,-,N/A,,Scattered Clouds,60,2013-09-25 00:15:00
7:35 PM,66.2,57.2,73,29.84,10.0,ENE,4.6,-,N/A,,Mostly Cloudy,60,2013-09-25 00:35:00
7:55 PM,65.7,57.2,74,29.85,10.0,NE,4.6,-,N/A,,Scattered Clouds,50,2013-09-25 00:55:00
8:15 PM,66.2,56.8,72,29.85,10.0,ENE,4.6,-,N/A,,Mostly Cloudy,60,2013-09-25 01:15:00
8:35 PM,66.2,56.5,71,29.85,10.0,ENE,4.6,-,N/A,,Scattered Clouds,70,2013-09-25 01:35:00
8:55 PM,64.6,56.5,75,29.85,10.0,ENE,3.5,-,N/A,,Scattered Clouds,60,2013-09-25 01:55:00
9:15 PM,66.2,56.7,71,29.84,10.0,ENE,4.6,-,N/A,,Clear,70,2013-09-25 02:15:00
9:35 PM,65.1,56.7,74,29.85,10.0,East,3.5,-,N/A,,Clear,100,2013-09-25 02:35:00
9:55 PM,63.3,56.7,79,29.85,10.0,Calm,Calm,-,N/A,,Scattered Clouds,0,2013-09-25 02:55:00
10:15 PM,63.0,56.5,79,29.85,10.0,Calm,Calm,-,N/A,,Scattered Clouds,0,2013-09-25 03:15:00
10:35 PM,61.7,56.3,82,29.85,10.0,Calm,Calm,-,N/A,,Clear,0,2013-09-25 03:35:00
10:55 PM,61.2,56.3,84,29.85,10.0,Calm,Calm,-,N/A,,Clear,0,2013-09-25 03:55:00
11:15 PM,60.4,57.0,88,29.85,10.0,NE,5.8,-,N/A,,Clear,40,2013-09-25 04:15:00
11:35 PM,61.7,57.2,85,29.85,10.0,NE,4.6,-,N/A,,Clear,50,2013-09-25 04:35:00
11:55 PM,61.0,57.2,87,29.86,10.0,NE,5.8,-,N/A,,Clear,40,2013-09-25 04:55:00